Flag for U.S.A. Weather past 2 weeks in Lexington, Virginia, U.S.A.

Now
56 °F

Fog.


Feels Like: 55 °F
Forecast: 62 / 75 °F
Wind: 5 mph from East

Location: Hot Springs / Ingalls

Current Time: Aug 2, 2014 at 1:23:47 AM

Latest Report: Aug 2, 2014 at 12:55 AM


Visibility: 0 mi

Pressure: 30.26 "Hg

Humidity: 95%

Dew point: 54 °F

Location of LexingtonLocation

Historic Weather in Lexington — Graph

°F

Lexington temperature yesterday

Maximum temperature yesterday: 63 °F (at 3:35 PM)
Minimum temperature yesterday: 56 °F (at 10:15 AM)
Average temperature yesterday: 59 °F

Past Weeks' High & Low Weather Summary

 TemperatureHumidityPressure
High80 °F (Jul 23, 3:15 PM)100% (Jul 28, 10:35 PM)30.35 "Hg (Jul 28, 10:35 PM)
Low48 °F (Jul 30, 5:55 AM)39% (Jul 26, 5:35 PM)29.82 "Hg (Jul 28, 7:35 AM)
Average61 °F82%30.17 "Hg
* Reported Jul 18 12:15 AM — Aug 2 12:15 AM, Lexington, Weather by CustomWeather, © 2014

Note: Actual official high and low records may vary slightly from our data, if they occured in-between our weather recording intervals... More about our weather records

Advertising

Lexington weather history for previous 24 hours

 ConditionsComfort  
Time TempWeatherWind HumidityBarometerVisibility
12:15 AM
Aug 2
56 °FFog.7 mph94%30.26 "Hg1 mi
11:55 PM
Aug 1
56 °FFog.7 mph94%30.26 "Hg1 mi
11:35 PM56 °FFog.7 mph94%30.25 "Hg1 mi
10:55 PM56 °FFog.6 mph94%30.26 "Hg3 mi
10:15 PM56 °FOvercast.7 mph88%30.26 "Hg10 mi
9:55 PM56 °FPartly cloudy.8 mph86%30.27 "Hg10 mi
9:35 PM56 °FClear.9 mph84%30.26 "Hg10 mi
9:15 PM56 °FSunny.7 mph83%30.25 "Hg10 mi
8:55 PM56 °FScattered clouds.7 mph82%30.26 "Hg10 mi
8:35 PM57 °FScattered clouds.7 mph80%30.26 "Hg10 mi
8:15 PM58 °FScattered clouds.7 mph79%30.26 "Hg10 mi
7:55 PM59 °FBroken clouds.8 mph76%30.26 "Hg10 mi
6:35 PM61 °FOvercast.6 mph70%30.27 "Hg10 mi
6:15 PM62 °FMore clouds than sun.7 mph72%30.26 "Hg10 mi
5:55 PM62 °FBroken clouds.7 mph72%30.26 "Hg10 mi
5:35 PM62 °FOvercast.9 mph70%30.27 "Hg10 mi
5:20 PM63 °FMore clouds than sun.8 mph66%30.27 "Hg10 mi
4:55 PM63 °FMore clouds than sun.6 mph70%30.27 "Hg10 mi
4:35 PM63 °FOvercast.8 mph68%30.28 "Hg10 mi
4:15 PM62 °FScattered clouds.10 mph68%30.28 "Hg10 mi
3:55 PM62 °FMore clouds than sun.8 mph71%30.28 "Hg10 mi
3:35 PM63 °FMore clouds than sun.9 mph70%30.28 "Hg10 mi
3:15 PM63 °FMostly cloudy.9 mph75%30.29 "Hg10 mi
2:55 PM59 °FMostly cloudy.8 mph88%30.29 "Hg10 mi
2:35 PM61 °FMostly cloudy.6 mph83%30.29 "Hg10 mi
2:15 PM59 °FMostly cloudy.8 mph88%30.30 "Hg7 mi
1:55 PM59 °FLow clouds.7 mph89%30.30 "Hg10 mi
1:35 PM59 °FLow clouds.7 mph91%30.31 "Hg7 mi
1:15 PM58 °FLow clouds.6 mph92%30.31 "Hg7 mi
12:55 PM58 °FLow clouds.7 mph91%30.31 "Hg10 mi
12:35 PM58 °FLow clouds.5 mph89%30.31 "Hg10 mi
12:15 PM58 °FLow clouds.9 mph92%30.31 "Hg7 mi
11:55 AM57 °FLow clouds.9 mph92%30.31 "Hg7 mi
11:35 AM57 °FLow clouds.7 mph92%30.31 "Hg10 mi
11:15 AM57 °FLow clouds.7 mph93%30.31 "Hg7 mi
10:55 AM56 °FMostly cloudy.8 mph93%30.31 "Hg10 mi
10:35 AM56 °FMostly cloudy.8 mph94%30.31 "Hg10 mi
10:15 AM56 °FFog.7 mph95%30.31 "Hg1 mi
9:55 AM56 °FFog.8 mph95%30.30 "Hg0 mi
9:35 AM56 °FLight rain. Low clouds.9 mph94%30.30 "Hg1 mi
9:15 AM56 °FLight rain. Low clouds.7 mph94%30.30 "Hg0 mi
8:55 AM56 °FLight rain. Low clouds.7 mph94%30.29 "Hg0 mi
8:35 AM56 °FFog.6 mph94%30.29 "Hg2 mi
8:15 AM57 °FLight rain. Low clouds.9 mph94%30.29 "Hg0 mi
7:55 AM57 °FLight rain. Low clouds.6 mph94%30.28 "Hg0 mi
7:35 AM57 °FFog.5 mph94%30.28 "Hg0 mi
7:15 AM57 °FFog.5 mph94%30.28 "Hg1 mi
6:55 AM57 °FFog.5 mph94%30.27 "Hg4 mi
6:35 AM57 °FPartly cloudy.7 mph93%30.27 "Hg10 mi
6:15 AM57 °FPartly cloudy.6 mph94%30.27 "Hg7 mi
5:55 AM57 °FFog.8 mph94%30.27 "Hg5 mi
5:35 AM57 °FFog.7 mph94%30.27 "Hg4 mi
5:15 AM58 °FFog.7 mph93%30.26 "Hg4 mi
4:55 AM58 °FPartly cloudy.6 mph92%30.26 "Hg7 mi
4:35 AM58 °FPassing clouds.6 mph91%30.26 "Hg7 mi
4:15 AM59 °FMostly cloudy.6 mph89%30.27 "Hg10 mi
3:55 AM59 °FMostly cloudy.3 mph87%30.27 "Hg10 mi
3:35 AM60 °FPassing clouds.3 mph83%30.27 "Hg10 mi
3:15 AM60 °FPartly cloudy.5 mph77%30.27 "Hg10 mi
2:55 AM61 °FOvercast.5 mph73%30.27 "Hg10 mi
2:35 AM61 °FOvercast.3 mph74%30.27 "Hg10 mi
2:15 AM60 °FOvercast.5 mph79%30.27 "Hg10 mi
1:55 AM61 °FPassing clouds.5 mph77%30.28 "Hg10 mi
1:35 AM60 °FPassing clouds.7 mph77%30.28 "Hg10 mi
1:15 AM60 °FOvercast.6 mph79%30.29 "Hg10 mi
Weather by CustomWeather, © 2014

See weather overviewHow to use our weather pages